Find Starlink 37698

NORAD ID: 100423 Int'l Des: 2026-192 Owner: SPXS Country: US Constellation: starlink operational

Current View

Loading 3D Globe...

About Starlink 37698

Starlink 37698 (NORAD 100423) is a starlink constellation satellite launched Aug 21, 2026 by SPXS of US. with a mass of 575.00 kg.

Upcoming Passes

Passes for default location (London). Set your location on the main map for personalized predictions.

Altitude History

Loading altitude history...

Two-Line Element Set

1 A0423U 26192V 26261.04935585 .00087175 00000-0 13561-2 0 9991
2 A0423 53.1589 317.4682 0001126 58.9526 301.1595 15.53205909 5534
Epoch: Sep 18, 2026 • Age: 63 hours

Current Status

Altitude 409.7 km
Apogee / Perigee N/A
Velocity 7.67 km/s
Sub-Earth Point -11.64°S, 102.52°W
Launch Date Aug 21, 2026
Age 30 days
Type internet

Technical Details

Classification Payload
Mass 575.00 kg
Dry Mass 530.00 kg
Length 0.30 m
Span 29.00 m
Shape ? Box + pan
Manufacturer SPXS
Bus Type Starlink V2MO
Phase Status In Orbit
Owner/State SPXS/US

Most Searched